This is the latest recevied weather packets stored in our database for station/object DG4MND-4. If no packets are shown the sender has not sent any weather packets the latest 10 day(s).
| Time | Temp. | Humidity | Pressure | Rain* | Wind** | Luminosity | Snow |
|---|---|---|---|---|---|---|---|
| 1778002875 | 14.44° C | 82% | 1007 hPa | 0 mm | - | - | - |
| 1778002272 | 15° C | 81% | 1007.1 hPa | 0 mm | - | - | - |
| 1778001668 | 15° C | 81% | 1006.8 hPa | 0 mm | - | - | - |
| 1778001068 | 15° C | 77% | 1006.4 hPa | 0.25 mm | - | - | - |
| 1778000461 | 15° C | 76% | 1006.5 hPa | 0.25 mm | - | - | - |
| 1777999857 | 15.56° C | 76% | 1006.4 hPa | 0.25 mm | - | - | - |
| 1777999257 | 15.56° C | 79% | 1006.3 hPa | 0.25 mm | - | - | - |
| 1777998653 | 15.56° C | 82% | 1006.5 hPa | 0.25 mm | - | - | - |
| 1777998047 | 15.56° C | 83% | 1006.5 hPa | 0.25 mm | - | - | - |
| 1777997443 | 16.11° C | 75% | 1006.8 hPa | 0 mm | - | - | - |
| 1777996843 | 16.67° C | 73% | 1006.9 hPa | 0 mm | - | - | - |
| 1777996240 | 16.67° C | 68% | 1006.9 hPa | 0 mm | - | - | - |
| 1777995636 | 17.22° C | 65% | 1007 hPa | 0 mm | - | - | - |
| 1777995033 | 17.22° C | 64% | 1007.1 hPa | 0 mm | - | - | - |
| 1777994426 | 16.67° C | 64% | 1007 hPa | 0 mm | - | - | - |
| 1777993823 | 17.22° C | 63% | 1006.8 hPa | 0 mm | - | - | - |
| 1777993219 | 17.22° C | 64% | 1006.7 hPa | 0 mm | - | - | - |
| 1777992619 | 17.22° C | 64% | 1006.8 hPa | 0 mm | - | - | - |
| 1777992076 | 17.22° C | 67% | 1006.8 hPa | 0 mm | - | - | - |
| 1777991472 | 17.22° C | 63% | 1006.9 hPa | 0 mm | - | - | - |
| 1777990869 | 17.22° C | 62% | 1006.8 hPa | 0 mm | - | - | - |
| 1777989659 | 17.22° C | 67% | 1006.8 hPa | 0 mm | - | - | - |
| 1777989055 | 17.22° C | 66% | 1006.8 hPa | 0 mm | - | - | - |
| 1777988452 | 17.22° C | 70% | 1006.8 hPa | 0 mm | - | - | - |
| 1777987849 | 17.78° C | 71% | 1006.8 hPa | 0 mm | - | - | - |
* Rain latest hour (hover to see other rain measurements)
** Current wind speed in m/s (hover to see current wind gust speed)